Altoona, PA

2:29 AM EST on November 18, 2019 (GMT -0500)
Altoona-Blair County

Weather History for KAOO - September, 2019

Change the Weather History Date:

Wednesday, September 4, 2019

  Actual Average Record
Temperature  
Mean Temperature 72 °F 66 °F  
Max Temperature 84 °F 76 °F 92 °F (2018)
Min Temperature 60 °F 55 °F 46 °F (1989)
Degree Days  
Heating Degree Days 0 2  
Month to date heating degree days 0 8  
Since 1 July heating degree days 9 40  
Cooling Degree Days 7 3  
Month to date cooling degree days 18 12  
Year to date cooling degree days 663 491  
Growing Degree Days 22 (Base 50)    
Moisture  
Dew Point 61 °F    
Average Humidity 68    
Maximum Humidity 90    
Minimum Humidity 45    
Precipitation  
Precipitation 0.00 in 0.12 in 1.10 in (1996)
Month to date precipitation 0.55 0.47  
Year to date precipitation 30.24 24.40  
Sea Level Pressure  
Sea Level Pressure 29.97 in    
Wind  
Wind Speed 9 mph (West)    
Max Wind Speed 20 mph    
Max Gust Speed 26 mph    
Visibility 10 miles    
Events      
T = Trace of Precipitation, MM = Missing Value Source: NWS Daily Summary

Daily Weather History Graph

Daily Weather History Graph

Search for Another Location

Airport or City:

Astronomy

Sep. 04, 2019 Rise Set
Actual Time 6:43 AM EDT 7:40 PM EDT
Civil Twilight 6:15 AM EDT 8:08 PM EDT
Nautical Twilight 5:42 AM EDT 8:41 PM EDT
Astronomical Twilight 5:08 AM EDT 9:15 PM EDT
Moon 12:43 PM EDT (9/4) 11:13 PM EDT (9/4)
Length of Visible Light 13h 52m
Length of Day
12h 57m
Waxing Crescent, 34% of the Moon is Illuminated
Sep 4
Waxing Crescent
Sep 5
First Quarter
Sep 14
Full
Sep 21
Last Quarter
Sep 28
New

Hourly Weather History & Observations

Time (EDT) Temp. Heat Index Dew Point Humidity Pressure Visibility Wind Dir Wind Speed Gust Speed Precip Events Conditions
12:53 AM 64.9 °F - 59.0 °F 81% 29.99 in 10.0 mi Calm Calm - N/A   Clear
1:53 AM 63.0 °F - 59.0 °F 87% 29.96 in 10.0 mi South 3.5 mph - N/A   Clear
2:53 AM 63.0 °F - 59.0 °F 87% 29.95 in 10.0 mi Calm Calm - N/A   Clear
3:53 AM 64.0 °F - 59.0 °F 84% 29.94 in 10.0 mi Calm Calm - N/A   Clear
4:53 AM 62.1 °F - 57.9 °F 86% 29.93 in 10.0 mi SW 4.6 mph - N/A   Clear
5:53 AM 66.0 °F - 60.1 °F 81% 29.93 in 10.0 mi SSW 8.1 mph - N/A   Clear
6:53 AM 68.0 °F - 61.0 °F 78% 29.95 in 10.0 mi SSW 11.5 mph - N/A   Clear
7:53 AM 69.1 °F - 62.1 °F 78% 29.96 in 10.0 mi SW 8.1 mph - N/A   Partly Cloudy
8:53 AM 73.0 °F - 64.0 °F 73% 29.95 in 10.0 mi SSW 10.4 mph - N/A   Clear
9:53 AM 75.0 °F - 64.9 °F 71% 29.95 in 10.0 mi SW 9.2 mph - N/A   Scattered Clouds
10:05 AM 75.9 °F - 66.0 °F 71% 29.98 in 10.0 mi SW 10.4 mph - N/A   Mostly Cloudy
10:21 AM 78.1 °F - 66.9 °F 68% 29.98 in 10.0 mi SW 10.4 mph - N/A   Scattered Clouds
10:53 AM 80.1 °F 82.3 °F 66.9 °F 64% 29.95 in 10.0 mi WSW 9.2 mph - N/A   Clear
11:53 AM 82.0 °F 84.5 °F 66.9 °F 60% 29.95 in 10.0 mi West 13.8 mph - N/A   Mostly Cloudy
12:53 PM 81.0 °F 83.0 °F 66.0 °F 60% 29.94 in 10.0 mi West 17.3 mph 23.0 mph N/A   Partly Cloudy
1:53 PM 81.0 °F 82.5 °F 64.0 °F 56% 29.95 in 10.0 mi West 12.7 mph 23.0 mph N/A   Partly Cloudy
2:53 PM 80.1 °F 81.2 °F 62.1 °F 54% 29.94 in 10.0 mi NW 13.8 mph - N/A   Mostly Cloudy
3:53 PM 82.9 °F 83.3 °F 61.0 °F 47% 29.94 in 10.0 mi NW 16.1 mph 21.9 mph N/A   Partly Cloudy
4:53 PM 82.0 °F 82.4 °F 60.1 °F 47% 29.95 in 10.0 mi NW 15.0 mph 20.7 mph N/A   Clear
5:53 PM 81.0 °F 81.1 °F 57.9 °F 45% 29.97 in 10.0 mi WNW 11.5 mph - N/A   Clear
6:53 PM 78.1 °F - 57.0 °F 48% 29.99 in 10.0 mi NW 6.9 mph - N/A   Clear
7:53 PM 73.9 °F - 57.0 °F 55% 30.00 in 10.0 mi NNW 6.9 mph - N/A   Clear
8:53 PM 72.0 °F - 57.9 °F 61% 30.02 in 10.0 mi North 8.1 mph - N/A   Clear
9:53 PM 70.0 °F - 57.0 °F 63% 30.03 in 10.0 mi NNW 9.2 mph - N/A   Clear
10:53 PM 64.0 °F - 57.0 °F 78% 30.06 in 10.0 mi North 6.9 mph - N/A   Clear
11:53 PM 63.0 °F - 55.9 °F 78% 30.06 in 10.0 mi North 8.1 mph - N/A   Clear